Tracking 27419 objects as of 10-Jun-2023
HD Live streaming from Space Station
objects crossing your sky now

STARLINK-4616

Track STARLINK-4616 now!
10-day predictions
STARLINK-4616 is classified as:


NORAD ID: 53734
Int'l Code: 2022-107AL
Perigee: 546.0 km
Apogee: 547.8 km
Inclination: 53.2 °
Period: 95.4 minutes
Semi major axis: 6917 km
RCS: Unknown
Launch date: September 5, 2022
Source: United States (US)
Launch site: AIR FORCE EASTERN TEST RANGE (AFETR)
Your satellite tracking list
Your tracking list is empty




NASA's NSSDC Master Catalog

Two Line Element Set (TLE):
1 53734U 22107AL  23160.49727245  .00000109  00000-0  24914-4 0  9990
2 53734  53.2178  82.1841 0001296  78.3523 281.7614 15.08838398 42356
Source of the keplerian elements: AFSPC